Terminal Aerodrome Forecast
Issued by NWS Brownsville, TX

Home | Current Version | Previous Version | Text Only | Print | Product List | Glossary On
Versions: 1 2 3 4 5 6 7 8 9 10 11 12 13 14
000
FTUS44 KBRO 242300
TAFHRL
TAF
KHRL 242329Z 2500/2524 12015G23KT P6SM SCT250
     FM250200 13006KT P6SM SCT150 BKN250
     FM250500 15004KT P6SM SKC
     FM251500 18010KT P6SM FEW030
     FM251900 15014G23KT P6SM FEW050 SCT250=

USA.gov is the U.S. government's official web portal to all federal, state and local government web resources and services.